{"data":{"norad_id":67918,"epoch":"2026-05-24T12:20:56.991264Z","epoch_age_seconds":107060,"freshness":"FRESH","line1":"1 67918U 26036Q   26144.51454851  .00010892  00000+0  40470-3 0  9995","line2":"2 67918  42.9993 177.4814 0001513 265.9177  94.1501 15.27584807 15315","mean_motion":15.27584807,"eccentricity":0.0001513,"inclination_deg":42.9993,"raan_deg":177.4814,"arg_perigee_deg":265.9177,"mean_anomaly_deg":94.1501,"bstar":0.0004047,"rev_number":1531,"period_min":94.266452075286,"perigee_km":481.99660691155,"apogee_km":484.07279746863,"semimajor_km":6861.1717021901,"source":"CELESTRAK","updated_at":"2026-05-25T13:38:21.740568Z"}}